GFSSE_con_3kmhel_000.txt.gz
Helicity
-28 -21 7 39 84 66 71 106 63 29 50 89 122 157 141 141 143 163 170 127 92 86 75 83 88 122 105 104 96 69 58 66 54 23 -11 -17 -10 20 32 28 22 44 75
-33 -12 4 18 30 60 86 69 98 68 75 81 93 135 137 123 112 88 85 107 131 68 92 185 169 217 233 179 177 134 74 48 40 24 14 11 16 28 33 32 44 42 91
5 -6 9 28 34 53 93 97 117 109 93 66 67 92 83 82 75 71 86 123 120 100 114 154 242 156 188 332 271 177 127 48 35 18 12 23 25 29 30 40 27 43 70
11 -5 12 12 48 59 71 72 69 86 89 77 63 64 56 43 47 55 86 83 55 64 103 122 166 182 174 107 106 71 65 49 45 34 24 26 21 19 20 44 57 55 62
16 4 10 26 37 51 60 54 65 74 67 54 42 30 19 21 30 44 55 36 43 51 88 101 50 56 77 5 205 138 1 48 46 34 18 17 28 41 36 36 69 61 54
12 4 33 49 59 62 53 41 29 47 58 73 60 31 24 15 25 47 49 42 58 52 47 39 80 55 48 11 104 77 89 -7 65 28 22 15 20 5 34 32 60 77 59
-5 11 28 41 39 34 27 17 21 40 63 70 83 78 66 63 64 73 64 62 39 49 44 46 31 55 61 61 78 27 57 49 -46 65 42 19 34 6 23 24 54 74 73
14 14 21 26 23 5 10 15 27 43 63 84 89 95 109 94 79 87 85 82 61 43 38 27 16 73 119 86 58 17 -5 21 40 18 60 36 46 25 32 39 48 59 69
33 43 34 18 -4 -7 13 29 48 83 111 116 120 121 110 106 102 91 84 74 68 72 56 35 22 28 47 83 54 24 24 -5 -94 10 49 54 57 41 16 58 55 69 72
74 70 41 20 -2 -4 9 25 60 74 108 93 93 87 83 91 79 67 70 59 51 61 67 54 51 62 81 101 105 64 52 54 59 40 73 42 51 69 10 47 49 66 70
92 82 88 92 58 43 61 83 98 91 85 87 75 93 84 68 63 52 48 55 43 43 58 83 90 101 103 92 73 68 39 28 46 57 78 75 83 94 53 45 48 44 52
233 143 122 117 105 109 100 131 74 108 83 69 73 84 71 71 64 74 70 73 72 63 46 28 45 65 69 66 55 49 42 48 66 83 73 63 73 111 82 53 51 46 43
211 163 150 102 79 117 116 93 87 116 98 82 91 95 102 97 88 95 94 94 102 89 77 65 48 33 41 30 37 62 92 95 104 110 108 130 120 77 81 71 58 45 51
203 181 117 63 90 125 105 81 86 119 125 120 109 128 131 122 119 113 112 105 100 98 92 84 85 70 53 43 40 39 41 72 82 110 72 73 116 137 89 68 65 64 59
192 161 111 120 94 129 118 117 142 174 185 179 176 169 163 160 142 121 114 120 119 124 129 116 99 81 60 45 45 44 40 42 55 70 93 74 50 96 127 132 108 71 45
198 183 160 152 103 125 117 105 127 159 204 214 203 201 199 187 164 150 149 142 145 141 134 135 136 120 103 85 64 50 45 40 21 41 54 60 66 68 90 90 117 120 105
196 228 203 160 132 123 129 117 122 132 176 192 186 195 189 182 183 190 193 175 155 153 149 144 131 127 129 113 96 86 71 45 34 1 25 88 85 69 82 97 88 88 129
283 258 212 202 168 129 107 116 119 129 155 164 158 167 160 149 161 191 217 193 171 158 144 139 145 142 127 111 102 95 75 67 60 51 38 11 30 70 100 112 53 95 97
280 283 247 197 144 128 126 130 148 143 163 162 161 158 151 145 143 153 155 139 152 164 151 141 129 122 112 107 97 84 71 59 46 49 70 70 54 32 83 67 72 83 85
296 232 180 144 129 132 144 147 145 152 158 188 183 196 178 165 132 156 143 129 150 151 137 137 114 97 76 68 59 72 53 41 49 39 61 59 102 90 82 82 63 66 79
241 180 149 124 88 135 118 118 129 149 158 172 187 204 205 201 178 182 174 161 178 189 156 144 138 104 89 57 56 33 56 67 53 54 24 53 81 113 170 100 68 18 30
133 112 91 91 67 91 138 145 171 203 193 201 182 207 231 252 262 252 235 216 226 252 251 240 218 207 165 125 77 39 27 23 48 44 58 55 41 54 85 135 128 105 40
128 128 91 105 89 96 105 136 167 235 251 251 239 255 272 307 322 316 293 293 267 280 312 332 374 325 266 218 186 106 28 22 -14 -11 9 26 23 36 47 46 105 138 76
94 101 84 123 111 91 135 186 240 271 292 297 319 346 304 332 338 359 330 325 322 342 419 497 483 440 332 275 255 172 137 79 27 -26 -11 2 -5 -5 18 45 57 90 127
77 88 105 140 127 113 148 194 266 286 337 319 336 338 336 376 415 395 405 459 515 556 532 452 337 405 335 293 319 139 112 76 47 55 6 -8 -6 -21 -18 -7 8 33 105
224 178 176 189 178 154 125 121 249 246 272 310 281 338 433 498 499 400 523 627 623 595 648 608 538 376 267 325 328 135 103 86 70 73 66 23 -8 -23 -22 3 35 54 75

GFSSE_con_3kmhel_003.txt.gz
Helicity
-51 -32 -32 -11 11 4 19 24 118 171 124 125 121 107 121 135 135 132 104 49 21 52 55 63 84 125 158 200 214 195 143 118 52 34 20 21 28 27 32 41 36 39 38
-28 -29 -21 -7 18 41 71 68 67 87 119 107 89 75 63 63 56 59 111 149 192 150 92 54 89 119 184 248 170 203 180 125 67 46 25 25 36 18 25 42 38 42 39
-28 -14 -3 14 10 31 53 76 90 104 102 74 59 50 38 36 34 66 117 125 115 28 31 73 42 98 166 200 137 141 160 148 65 25 17 32 46 33 40 45 53 40 32
-20 -1 -25 12 14 15 57 63 68 73 72 51 36 25 20 24 44 55 64 68 59 32 13 4 -5 52 72 99 123 97 89 150 185 63 38 26 25 15 18 29 30 38 27
-1 -10 -13 26 18 13 44 61 77 86 74 55 30 25 18 23 43 48 46 63 75 75 53 32 -3 10 47 97 55 28 53 126 141 -1 62 32 29 15 0 7 7 16 51
5 -1 0 9 17 18 27 41 45 46 45 32 27 40 39 40 43 45 43 35 48 39 32 28 2 32 54 72 77 63 117 100 212 54 -20 72 38 17 -4 8 11 39 80
-17 -20 4 25 17 15 29 30 36 43 47 57 58 40 45 57 63 57 41 22 38 36 33 18 34 38 44 39 15 51 93 160 195 74 30 96 59 44 -4 8 22 30 60
0 12 4 12 15 1 4 21 35 56 80 94 93 78 64 63 59 52 42 33 18 12 10 9 13 31 45 26 36 21 57 122 82 50 22 35 78 47 32 12 29 41 61
14 21 21 13 -1 3 17 56 78 93 108 107 86 81 81 73 66 53 46 35 22 18 20 20 3 3 11 37 45 46 51 79 98 59 73 73 55 61 35 11 31 35 56
30 35 28 14 24 36 37 63 89 83 94 84 67 73 72 60 57 55 45 28 23 17 14 22 36 49 64 59 74 96 91 93 108 90 79 71 86 60 47 2 35 34 48
41 81 54 63 68 57 68 82 71 77 66 67 54 55 52 41 48 43 39 48 52 52 39 38 59 66 64 56 45 56 49 38 59 59 50 90 104 76 81 8 30 26 37
87 77 92 96 75 79 68 88 42 55 68 78 79 91 74 60 48 59 68 73 64 60 57 47 43 62 53 40 23 30 6 -19 -44 -9 29 82 102 118 107 66 52 33 21
159 145 114 82 75 50 44 75 55 60 68 84 87 96 88 83 74 84 95 94 88 85 68 64 63 62 74 63 51 36 34 43 43 19 27 63 97 148 139 115 61 47 39
212 148 144 132 112 80 105 99 78 85 86 94 86 94 117 116 108 105 107 97 92 88 83 83 85 70 64 63 57 54 55 51 51 53 53 77 103 129 130 105 91 54 49
191 190 168 154 117 115 124 123 104 94 108 131 137 111 114 125 119 118 105 104 101 116 118 111 98 91 81 68 54 52 61 57 54 47 33 54 58 75 111 103 87 91 73
145 147 143 117 109 124 104 112 117 130 152 167 157 136 128 128 121 117 116 124 122 117 106 99 95 99 105 101 92 77 59 59 51 54 62 52 52 41 65 79 96 89 98
150 153 146 126 130 114 96 95 110 119 144 162 159 142 135 152 139 132 132 131 116 109 97 98 91 89 99 100 100 99 84 62 42 47 46 49 63 53 37 21 47 94 88
187 200 153 126 123 111 91 86 95 110 128 126 137 150 140 138 134 144 144 129 119 111 110 106 95 92 87 82 82 77 64 56 51 43 31 30 9 37 73 93 82 72 101
220 226 166 122 126 106 81 74 84 94 109 120 146 156 137 141 149 151 138 122 117 120 124 118 105 101 95 97 92 86 84 67 51 54 67 75 61 38 42 126 152 88 76
216 169 133 89 114 114 77 72 77 87 108 138 138 159 150 178 178 175 159 142 153 148 133 133 116 115 100 85 86 72 40 32 57 47 53 66 126 89 71 71 105 181 143
163 133 77 68 58 132 108 77 77 102 128 170 185 162 168 193 207 229 220 194 206 199 175 167 163 142 128 117 116 88 49 15 20 37 32 45 82 107 107 103 85 84 117
84 66 48 49 67 70 103 93 100 139 120 166 209 222 234 247 235 278 294 281 287 283 255 260 274 261 208 197 167 127 116 70 76 16 2 26 53 75 106 109 124 104 71
70 74 77 94 88 95 118 159 172 204 183 216 207 274 293 343 318 333 360 371 363 393 363 378 397 375 328 317 253 227 185 113 36 -38 4 -34 30 33 27 46 74 88 108
24 50 56 79 89 112 146 188 194 213 201 243 253 249 257 308 323 346 368 424 422 435 370 386 408 458 504 475 440 394 349 255 103 31 -31 -2 -26 26 13 4 33 69 68
83 112 129 133 146 168 167 159 165 175 216 248 235 210 221 250 292 299 351 427 441 366 401 397 476 512 526 546 507 411 366 290 181 79 48 34 -16 -33 -9 1 21 72 107
261 301 319 315 286 241 167 111 111 144 171 180 153 165 195 205 204 247 393 521 528 493 647 499 556 657 619 454 544 430 380 333 289 104 116 95 58 -63 -36 -11 11 44 88

GFSSE_con_3kmhel_009.txt.gz
Helicity
-31 -28 -10 -23 -47 -39 -9 2 51 70 54 71 85 97 109 84 114 133 129 156 155 112 122 95 64 52 40 42 55 37 28 34 48 70 53 32 33 59 64 72 56 45 61
-34 -65 -58 -49 -50 -34 22 35 25 38 49 56 68 88 115 138 154 138 136 109 107 91 66 78 74 49 36 63 60 67 53 48 24 21 40 34 26 22 49 78 77 70 57
-14 -38 -40 -27 -9 2 24 30 25 40 55 66 58 84 100 134 145 132 124 103 69 43 31 20 27 39 52 88 121 123 112 95 78 44 32 33 23 15 27 53 68 72 61
-35 -43 -43 -46 -35 -23 8 23 24 23 33 44 53 69 83 97 96 90 83 75 55 46 43 45 66 73 100 123 130 130 132 118 120 84 48 54 48 24 11 28 49 64 59
-53 -56 -55 -47 -32 -20 1 1 10 24 36 40 45 52 61 65 63 65 77 80 80 84 96 104 112 107 119 121 114 120 104 122 122 82 42 31 52 44 15 27 24 39 54
-43 -56 -49 -33 -23 -11 6 29 41 52 57 62 45 47 43 40 61 66 66 68 72 86 84 90 95 106 108 104 106 97 97 101 86 78 54 53 60 54 43 14 15 23 32
-37 -37 -21 -14 -13 3 20 32 46 58 66 62 61 53 41 37 38 41 56 70 75 77 91 94 102 110 102 98 88 87 81 71 69 100 104 103 66 64 38 31 12 7 11
-20 -27 -19 -18 -9 5 21 37 50 68 63 56 34 14 19 36 39 34 33 28 30 35 36 38 49 63 77 98 103 97 97 83 76 85 110 137 147 126 66 42 51 13 11
-11 -9 -7 -3 2 19 26 31 44 35 41 39 24 15 27 32 26 24 17 13 22 31 31 30 34 37 48 53 63 77 100 116 100 112 129 129 132 131 129 80 65 26 13
-6 -5 4 8 18 28 33 37 32 19 22 30 29 29 27 25 23 18 12 20 33 38 38 33 39 45 49 55 54 56 63 75 100 109 115 119 131 132 111 80 101 80 22
-13 -2 6 25 45 48 46 34 20 12 24 32 41 46 40 30 28 26 32 34 41 45 52 53 51 57 59 60 62 56 36 43 47 65 82 113 120 111 128 149 100 92 40
19 9 14 36 56 58 49 44 27 11 16 26 33 39 38 35 31 25 31 38 48 50 56 58 62 57 52 58 57 48 50 48 45 54 62 78 80 89 101 98 114 101 85
27 28 40 45 52 53 39 33 29 28 34 40 45 51 59 57 49 45 45 45 49 56 50 48 46 45 49 56 63 60 53 46 52 54 71 92 109 107 87 84 89 111 105
45 41 37 33 39 37 35 48 48 42 41 48 57 65 68 69 73 74 72 68 68 66 63 66 64 54 45 42 42 54 64 61 60 59 68 79 90 102 92 102 95 95 128
22 31 32 40 51 56 40 38 43 43 47 49 60 72 81 80 84 93 97 97 93 86 85 83 76 75 68 55 47 42 43 55 66 72 74 85 96 102 102 105 112 130 134
33 38 47 46 46 57 45 39 36 32 33 41 56 67 70 73 81 83 82 84 88 97 98 97 98 93 82 73 58 51 47 45 52 75 89 88 99 107 118 136 137 123 136
34 52 86 78 58 48 35 43 37 40 35 31 37 43 50 72 79 83 81 75 74 84 89 102 99 98 90 85 73 70 67 66 59 52 36 49 66 77 117 148 157 172 172
51 86 94 84 77 48 31 41 44 51 44 35 37 35 42 53 79 88 100 96 87 97 100 102 102 101 94 97 98 92 86 83 84 83 54 18 18 25 54 116 138 177 205
65 115 109 95 67 53 31 43 61 65 61 55 43 43 44 63 98 128 139 136 131 128 138 137 129 132 119 117 110 98 98 96 85 88 85 48 29 16 26 54 110 140 182
70 89 96 96 81 68 45 64 77 69 72 66 73 76 82 98 108 149 164 170 177 186 189 202 183 174 157 137 136 121 114 108 113 115 119 110 74 63 41 52 73 82 116
47 74 62 71 82 77 98 109 118 112 91 73 78 85 94 109 124 145 164 141 158 201 217 229 220 215 217 197 194 142 129 120 136 147 167 141 116 102 94 62 47 77 89
24 48 77 93 96 104 110 129 150 142 131 122 118 104 109 117 114 124 129 135 137 158 173 231 270 286 256 273 253 199 179 128 124 146 183 143 116 111 111 83 69 59 78
98 80 78 88 118 148 166 163 154 156 157 137 122 99 107 92 95 96 93 100 108 142 185 218 243 285 324 294 285 273 221 195 163 119 134 148 131 118 88 54 48 47 54
95 124 142 172 201 208 184 161 153 126 118 114 119 122 90 92 104 111 100 97 105 130 151 171 196 227 252 309 351 353 427 339 249 174 174 162 195 139 99 67 36 7 14
200 202 195 193 208 176 129 121 113 121 79 64 65 49 44 64 77 75 91 115 134 140 149 177 211 244 234 254 383 488 512 456 425 306 234 203 248 157 70 43 45 15 7
207 192 188 195 163 137 117 93 60 58 67 106 87 45 42 42 56 88 111 163 193 218 255 301 317 396 451 513 566 607 571 567 518 529 407 370 241 233 127 47 -11 -15 -40

GFSSE_con_3kmhel_012.txt.gz
Helicity
21 26 44 10 -31 -20 -19 -1 4 10 28 54 83 93 110 126 170 177 159 157 129 112 106 129 112 81 63 57 61 69 64 55 50 58 45 38 43 43 35 35 -0 49 9
3 8 2 -24 -23 16 20 21 29 23 29 48 73 93 116 131 144 134 113 109 82 75 73 77 78 65 68 87 105 115 112 97 93 62 41 6 23 36 23 22 38 95 43
-21 -28 -18 -25 -10 7 11 13 25 35 34 30 53 80 90 103 105 103 98 80 49 46 49 58 51 88 110 102 121 133 131 131 110 93 55 13 48 54 37 25 27 52 51
-39 -46 -36 -20 1 2 2 5 22 33 49 63 79 93 83 81 88 97 96 80 61 50 51 55 68 84 88 99 110 130 120 113 101 84 47 76 72 75 43 12 25 24 45
-30 -25 -10 -3 -2 10 12 21 42 48 52 55 60 76 87 86 87 78 75 74 78 81 82 84 95 98 93 96 93 86 89 85 76 55 76 67 65 67 39 18 -3 20 31
-7 -7 -9 -18 -6 11 28 40 45 47 53 68 63 50 40 45 65 78 74 68 59 59 61 71 87 90 91 93 98 93 71 66 68 74 86 101 53 76 61 54 29 42 30
-2 -3 6 -10 12 24 33 37 49 65 63 54 39 28 26 27 33 48 51 54 57 52 55 67 72 77 83 87 88 86 78 64 44 65 75 83 73 125 76 74 60 34 26
3 -3 9 3 -3 5 13 24 31 41 39 40 35 31 34 47 51 56 55 51 41 41 42 52 60 65 66 67 67 62 58 48 26 59 76 76 149 141 109 87 78 59 27
-6 6 15 10 10 -2 7 25 32 13 13 19 22 22 35 41 38 39 33 29 24 29 35 43 47 46 49 48 42 37 35 36 44 75 67 68 156 135 118 113 117 107 81
-3 12 5 1 12 17 40 40 18 5 9 21 26 35 39 32 35 37 20 49 40 40 39 42 48 48 46 49 48 42 26 -0 30 54 67 131 117 124 131 100 101 143 160
-5 5 3 12 19 29 25 35 32 21 17 18 27 33 22 37 44 37 72 45 45 46 45 44 46 44 29 33 39 27 -2 42 30 36 48 104 101 108 110 126 80 101 104
17 5 15 9 22 20 22 18 20 18 17 22 21 25 24 43 50 46 59 66 62 62 50 48 47 31 9 50 49 22 46 52 28 44 68 79 74 82 82 99 105 92 72
15 8 2 9 9 8 15 13 18 18 20 25 24 26 38 34 43 43 53 53 53 55 45 47 49 46 63 55 69 72 76 51 56 49 101 84 77 81 83 87 102 84 91
7 -5 3 4 19 30 18 23 10 12 14 13 16 23 34 37 44 46 51 51 44 50 49 44 51 60 54 49 48 56 64 73 78 68 95 91 90 94 96 97 97 102 100
-1 -1 6 22 28 31 25 16 9 8 19 13 14 23 24 20 30 35 46 51 58 57 50 46 45 46 49 46 47 44 47 58 69 73 81 85 97 113 114 110 102 105 122
-8 4 23 43 52 46 26 21 10 19 27 26 26 24 19 14 23 19 30 34 38 47 50 54 54 55 59 62 52 53 54 66 67 79 78 79 86 116 136 137 118 119 125
-14 3 37 52 61 50 42 30 22 33 32 34 27 25 17 3 6 14 27 34 40 56 55 51 55 57 56 65 65 73 66 60 65 71 73 88 81 79 103 137 151 149 140
-8 24 48 73 76 57 53 44 39 49 47 48 46 38 37 34 35 35 42 52 51 66 66 66 61 65 65 59 64 68 77 83 82 76 70 84 96 85 67 99 122 153 164
14 42 69 77 75 67 83 61 64 72 64 70 70 64 69 61 67 74 81 81 89 97 99 103 97 102 95 93 80 80 87 94 93 82 81 77 101 109 98 83 72 97 142
45 47 71 79 121 106 93 75 75 87 89 85 94 104 99 97 92 95 98 94 105 105 95 92 103 118 141 124 131 138 129 109 111 116 99 97 108 116 91 83 33 34 56
75 75 122 149 136 121 109 110 116 131 119 118 132 141 114 125 96 98 108 103 102 112 105 97 103 112 122 147 145 162 154 156 158 152 147 145 128 126 151 103 82 84 49
109 123 128 147 139 127 125 122 122 135 145 144 146 140 136 127 117 128 114 99 90 95 92 95 94 121 148 159 192 175 177 182 182 148 130 177 158 170 150 121 131 102 85
119 130 151 169 151 151 138 134 147 141 134 160 158 137 139 116 128 108 91 95 87 79 96 101 117 120 149 176 198 272 223 251 128 146 239 136 148 158 162 170 121 97 76
160 169 163 163 153 149 158 129 130 143 144 150 139 110 115 102 100 62 60 73 79 93 98 109 125 149 166 182 215 246 249 216 248 249 240 206 196 192 206 200 143 99 96
170 166 157 138 150 129 102 112 108 101 99 112 137 142 104 99 76 53 52 52 62 96 123 136 156 156 174 202 216 273 325 241 243 317 284 300 207 261 265 191 197 166 106
136 128 114 108 102 80 89 57 31 3 84 137 146 124 130 103 57 58 59 53 100 148 206 242 261 324 331 397 399 426 477 598 528 433 263 275 243 202 186 215 165 124 110